Home > Weather > Santa Maria > Past weeks

Flag for Cabo Verde Weather for the Past 2 Weeks in Santa Maria, Cabo Verde

Now
79 °F

Passing clouds.


Feels Like: 80 °F
Forecast: 68 / 77 °F
Wind: 14 mph from Northeast

Location: Sal

Current Time: Apr 29, 2016 at 2:09:25 PM

Latest Report: Apr 29, 2016 at 1:00 PM


Visibility: N/A

Pressure: 29.92 "Hg

Humidity: 51%

Dew Point: 59 °F

Location of Santa MariaLocation

Historic Weather in Santa Maria — Graph

°F

Santa Maria Temperature Yesterday

Maximum temperature yesterday: 79 °F (at 2:00 PM)
Minimum temperature yesterday: 68 °F (at 4:00 AM)
Average temperature yesterday: 72 °F

High & Low Weather Summary for the Past Weeks

 TemperatureHumidityPressure
High86 °F (Apr 17, 3:00 PM)88% (Apr 15, 3:00 AM)30.04 "Hg (Apr 15, 3:00 AM)
Low66 °F (Apr 27, 6:00 AM)31% (Apr 22, 12:00 PM)29.89 "Hg (Apr 15, 4:00 AM)
Average74 °F69%29.96 "Hg
* Reported Apr 14 12:00 Noon — Apr 29 12:00 Noon, Santa Maria, Weather by CustomWeather, © 2016

Note: Actual official high and low records may vary slightly from our data, if they occured in-between our weather recording intervals... More about our weather records

Advertising

Santa Maria Weather History for the Previous 24 Hours

Scroll right to see more
 ConditionsComfort  
Time TempWeatherWind HumidityBarometerVisibility
12:00 PM
Fri, Apr 29
79 °FScattered clouds.12 mph51%29.95 "HgN/A
11:00 AM75 °FScattered clouds.12 mph57%29.95 "HgN/A
10:00 AM75 °FBroken clouds.13 mph57%29.95 "HgN/A
9:00 AM72 °FBroken clouds.13 mph65%29.95 "HgN/A
8:00 AM70 °FBroken clouds.9 mph73%29.95 "HgN/A
7:00 AM68 °FBroken clouds.8 mph78%29.92 "HgN/A
5:00 AM68 °FScattered clouds.7 mph78%29.92 "HgN/A
4:00 AM68 °FPassing clouds.8 mph78%29.92 "HgN/A
2:00 AM68 °FPassing clouds.7 mph78%29.92 "HgN/A
1:00 AM68 °FPassing clouds.7 mph78%29.95 "HgN/A
12:00 AM68 °FPassing clouds.9 mph78%29.95 "HgN/A
11:00 PM
Thu, Apr 28
70 °FPassing clouds.9 mph73%29.98 "HgN/A
10:00 PM70 °FPassing clouds.12 mph73%29.98 "HgN/A
9:00 PM70 °FPassing clouds.9 mph73%29.95 "HgN/A
8:00 PM70 °FPassing clouds.9 mph73%29.95 "HgN/A
7:00 PM72 °FPassing clouds.14 mph69%29.92 "HgN/A
6:00 PM73 °FPassing clouds.15 mph65%29.92 "HgN/A
5:00 PM75 °FPassing clouds.18 mph61%29.92 "HgN/A
4:00 PM77 °FPartly sunny.18 mph57%29.92 "HgN/A
3:00 PM77 °FPartly sunny.17 mph54%29.92 "HgN/A
2:00 PM79 °FPartly sunny.17 mph54%29.95 "HgN/A
Weather by CustomWeather, © 2016

See weather overviewHow to use our weather pages